Погода в Кинсейле

Ирландия     51°42′20″N   8°31′19″W
темп.,
°C
ветер,
м/с
пор.,
м/с
влажн.,
%
обл.,
%
осадки,
мм/ч
давл.,
гПа
погр.,
м
25 октября, пн
пн2501:00+8зюз4119122 0.0 1011277
04:00+8зюз399120 0.0 1011183
07:00+8зюз388939 0.1 1012199
10:00+10зюз410825 0.0 1013518
13:00+13з586717 0.1 10141249
16:00+12зюз61073100 0.1 10131041
19:00+9зюз3888100 0.1 1015162
22:00+10юз4990100 0.0 1015214
26 октября, вт
вт2601:00+12юз61286100 0.0 1014572
04:00+13юз71386100 0.0 1013695
07:00+14юз71494100 0.1 1013703
10:00+14юз81393100 0.1 1013805
13:00+15юз81591100 0.1 1013811
16:00+15юз101787100 0.0 1011850
19:00+14ююз101892100 0.0 1010827
22:00+15юз101793100 0.3 10101196
27 октября, ср
ср2701:00+15ююз101890100 0.4 10091024
04:00+15ююз101893100 0.1 1008859
07:00+15ююз111995100 0.8 1006974
10:00+15ююз122093100 2.6 1006967
13:00+15ююз122194100 5.6 10051192
16:00+13юз81594100 5.6 1005716
19:00+13ююз71297100 7.9 1005577
22:00+13юз71195100 2.3 1005602
28 октября, чт
чт2801:00+11зюз3891100 2.3 1006324
04:00+10зюз3793100 0.0 1006135
07:00+10юз3693100 0.0 1006126
10:00+11ююз2590100 0.0 1006260
13:00+13ююз568161 0.1 1004706
16:00+13ююв46797 0.1 1001667
19:00+11ю3694100 1.9 998262
22:00+11юв61198100 11.0 994650
29 октября, пт
пт2901:00+10зюз8139484 12.4 991538
04:00+9зсз9158360 0.2 995900
07:00+8з613880 0.2 998451
10:00+9з511842 0.0 1000591
13:00+12зюз711725 0.1 10011268
16:00+12зюз711730 0.1 10001149
19:00+8зюз3788100 0.1 1001125
22:00+9юз3582100 0.0 99995